Sign in

Goboko Update

Goboko is set to continue

The Goboko booking system is to continue under a new operator, a member of one of our longest-subscribed flying clubs

The new and previous operators of the site are working to ensure there will be no interruption to your booking service as the transition takes place. Of course, aircraft booking will continue to be free

Thank you for your continued commitment to Goboko

Info

Aviation weather

METAR KDAB 182253Z 19007KT 10SM FEW060 SCT120 BKN150 26/24 A2996 RMK SLP145 T02560244

Aviation weather from ADDS. Re-check weather before flight.

-